www.pogodaiklimat.ru

Погода и климат >> Архив погоды >> Россия >> Якутия >> Чурапча


ПОГОДА в Чурапче

  • Прогноз погоды в Чурапче
  • Монитор погоды в Чурапче
  • Климат города

АРХИВ ПОГОДЫ в Чурапче

Время (UTC), дата Ветер
(напр.,м/с)
 
Видим.   Явления Облачность Т
(С)
Тd
(С)
f
(%)
Тe
(С)
Тes
(С)
Комфортность P
(гПа)
Po
(гПа)
Тmin
(С)
Tmax
(С)
R
(мм)
R24
(мм)
S
(см)
06 17.08 СЗ 3 50 км 6/3 1000 м
[Cu hum Ac trans Ci fib]
+19.4 +10.4 56 +21 +23 комфорт 1012.4 991.1
09 17.08 С 2 50 км 9/8 600 м
[Sc Ac trans]
+17.3 +10.0 62 +18 +18 1012.1 990.7
12 17.08 С 2 50 км 9/9 600 м
[Sc]
+15.1 +10.8 75 +15 +15 1012.5 990.9 +20.3
15 17.08 штиль 0 20 км в посл. час дождь 10/10 600 м
[Sc]
+12.1 +11.5 96 +11 +11 1012.8 991.0
18 17.08 СЗ 2 20 км {дождь} 10/10 600 м
[Sc]
+11.7 +10.9 95 +10 +10 1012.5 990.7
21 17.08 СЗ 2 20 км 10/10 600 м
[St]
+10.4 +10.0 97 +9 +9 1012.2 990.3
00 18.08 ЮЗ 2 20 км 10/10 600 м
[Sc]
+11.1 +9.7 91 +10 +10 1012.5 990.6 +10.2 6
03 18.08 СВ 1 50 км 9/9 600 м
[Sc diur, vesp]
+13.2 +9.9 80 +13 +14 1012.3 990.6
06 18.08 Ю 1 50 км 9/5 600 м
[Cu hum Ci fib]
+17.8 +10.4 62 +19 +22 1009.9 988.5
09 18.08 Ю 1 50 км 10/9 600 м
[Sc Cs]
+15.2 +10.5 74 +16 +16 1009.9 982.7
12 18.08 Ю 2 50 км 9/0
[Ac trans Ci fib]
+14.6 +11.7 83 +14 +14 1009.0 987.5 +19.6
15 18.08 ЮЗ 1 20 км 9/0
[Ac trans]
+12.9 +11.2 89 +13 +13 1008.7 987.0
18 18.08 СЗ 2 20 км слабый дождь 10/10 600 м
[Sc]
+12.1 +11.4 95 +11 +11 1008.8 987.1
21 18.08 штиль 0 20 км слабый дождь 10/10 600 м
[Sc]
+11.6 +10.8 95 +11 +11 1008.9 987.1
00 19.08 ЮЗ 2 20 км {дождь} 10/5 600 м
[St As op]
+12.5 +11.6 94 +11 +12 1009.6 987.9 +12.0 5
03 19.08 ЮЗ 2 50 км {морось} 10/8 600 м
[St Ac As]
+14.1 +11.9 87 +14 +14 1009.4 987.8
06 19.08 Ю 3 50 км {морось} 10/8 600 м
[Frnb As op]
+16.0 +12.0 77 +16 +16 1008.7 987.3
09 19.08 ЮЗ 3 50 км 9/6 600 м
[Sc diur, vesp Ci fib]
+16.6 +12.4 76 +16 +17 1008.7 987.3
12 19.08 Ю 1 20 км 9/9 600 м
[Sc]
+17.6 +11.0 65 +19 +19 1009.5 987.9 0.4
15 19.08 Ю 2 20 км 9/9 600 м
[Sc]
+12.2 +11.5 95 +11 +11 1009.7 988.0
18 19.08 Ю 1 20 км 8/8 600 м
[Sc]
+10.2 +9.8 97 +10 +10 1009.9 988.0
21 19.08 4000 м туман н/о +9.2 +8.8 97 +8 +9 1010.0 988.0
00 20.08 ЮЗ 2 20 км {туман} 3/0
[Ci sp]
+15.0 +11.1 77 +15 +20 1010.6 989.0 +8.5
03 20.08 ЮЗ 1 50 км 1/1 1000 м
[Cu hum]
+20.3 +10.0 52 +23 +32 комфорт 1009.7 988.5
06 20.08 З 5 50 км 6/6 600 м
[Cu med, cong]
+21.3 +9.5 47 +23 +24 комфорт 1008.9 987.8
09 20.08
{11}
50 км н/о +20.4 +7.5 43 +22 +22 комфорт 1009.2 988.0
12 20.08 СЗ 2 50 км ясно +14.9 +4.4 49 +15 +15 1011.0 989.4 +22.8
15 20.08 ЮЗ 2 50 км ясно +8.3 +4.0 74 +7 +7 1012.0 989.9
18 20.08 ЮЗ 1 50 км ясно +5.6 +3.7 88 +4 +4 1012.7 990.3
21 20.08 ЮЗ 1 50 км ясно +5.6 +4.0 89 +4 +5 1012.8 990.4
00 21.08 штиль 0 50 км ясно +12.8 +6.6 66 +12 +19 1012.4 990.6 +4.3
03 21.08 В 2 50 км 3/0
[Ci fib]
+17.9 +8.5 54 +18 +27 1011.1 989.7
06 21.08 В 2 50 км 3/0
[Ci fib]
+20.7 +8.8 46 +23 +28 комфорт 1009.6 988.0
09 21.08 В 2 50 км 4/0
[Ci fib]
+20.8 +8.8 46 +23 +24 комфорт 1008.3 987.2
12 21.08 СВ 1 50 км 9/0
[Ci fib]
+15.1 +10.4 73 +16 +16 1008.7 987.2 +22.0
15 21.08 СВ 3 50 км 9/0
[Ci fib]
+13.1 +10.2 83 +12 +12 1007.9 986.3
18 21.08 СВ 2 50 км 9/0
[Ci fib]
+12.3 +9.8 85 +11 +11 1007.3 985.6
21 21.08 В 2 50 км 9/0
[Ac trans Ci fib]
+13.1 +9.4 78 +12 +13 1006.6 985.0
00 22.08 В 9
{15}
50 км 9/0
[Ac trans Ci fib]
+17.3 +7.5 53 +16 +16 1004.7 983.4 +11.8
03 22.08 В 7
{14}
50 км 9/0
[Ac trans Ci fib]
+19.1 +7.2 46 +19 +20 1003.0 981.9
06 22.08 В 8
{15}
50 км 9/3 600 м
[Cu hum Ci fib]
+22.5 +7.9 39 +24 +24 комфорт 1001.1 979.8
09 22.08 ЮВ 8
{15}
50 км 9/0
[As op]
+19.5 +7.8 47 +20 +20 1001.5 980.4
12 22.08 ЮВ 5
{12}
50 км 10/10 600 м
[Sc]
+18.0 +8.4 53 +18 +18 1002.4 981.2 +23.2
15 22.08 ЮВ 6
{11}
50 км 10/10 600 м
[Sc]
+17.4 +8.1 54 +17 +17 1002.4 981.2
18 22.08 ЮВ 5
{12}
50 км 10/10 600 м
[Sc]
+16.4 +8.2 58 +16 +16 1002.8 981.5
21 22.08 ЮВ 4 50 км 9/8 600 м
[Sc Ac trans]
+17.4 +8.1 54 +17 +17 1003.0 981.8
00 23.08 В 5 50 км 9/9 600 м
[Sc]
+15.7 +11.1 74 +15 +15 1003.6 982.2 +15.4
03 23.08 В 3 50 км 9/9 600 м
[Sc]
+17.2 +10.5 65 +17 +18 1003.8 982.5
06 23.08 ЮВ 4 50 км 9/5 600 м
[Sc Ac trans]
+18.6 +9.9 57 +19 +20 1003.4 982.3
09 23.08 СВ 1 50 км 9/0
[Ac As]
+17.8 +13.4 75 +19 +19 1003.5 982.3
12 23.08 ЮЗ 1 50 км 9/8 600 м
[Sc Ac trans]
+16.1 +13.8 86 +17 +17 1004.1 982.8 +19.6
15 23.08 штиль 0 50 км 9/8 600 м
[Sc Ac trans]
+14.7 +13.4 92 +14 +14 1004.7 983.3
18 23.08 штиль 0 20 км 9/9 600 м
[Sc]
+13.7 +13.5 99 +13 +13 1004.8 983.3
21 23.08 ЮВ 1 50 км {дождь} 9/9 600 м
[Sc]
+12.9 +11.4 91 +13 +13 1004.8 983.2
00 24.08 Ю 3 20 км слабый дождь 9/9 600 м
[Sc]
+13.7 +11.5 87 +13 +13 1004.8 983.3 +12.5 0.3
03 24.08 Ю 2 20 км слабый дождь 10/10 600 м
[Sc]
+13.6 +12.7 94 +13 +13 1005.0 983.5

 

Местоположение метеостанции Чурапча (Якутия, Россия): широта 62.03 долгота 132.60 высота над уровнем моря 186 м.

В архиве по умолчанию представлена погода в Чурапче за последнюю неделю. Архивные данные за месяц целиком и за предыдущие месяцы, начиная с января 2011 года, Вы можете получить, выбрав интересующий диапазон дат из раскрывающегося списка и нажав кнопку "Ввод!".

Внимание! Время в таблицах - всемирное. Для получения местного времени необходимо прибавить поправку, которая в Чурапче равна 9 ч.

Смотрите также архив погоды в соседних городах и на ближайших метеорологических станциях:

Погода в Ытык-Кюёле (Якутия, Россия) (60 км)
Погода в Крест-Хальджае (Якутия, Россия) (128 км)
Погода в Амге (Якутия, Россия) (131 км)
Погода в Верхоянском Перевозе (Якутия, Россия) (147 км)
Погода в Охотском Перевозе (Якутия, Россия) (153 км)
Погода в Якутске (Якутия, Россия) (157 км)
Погода в Намцах (Якутия, Россия) (173 км)
Погода в Покровске (Якутия, Россия) (194 км)
Погода в Усть-Мае (Якутия, Россия) (210 км)
Погода в Тегюльте (Якутия, Россия) (222 км)

Пояснения к столбцам:

Ветер - указаны скорость ветра в м/с - средняя за 10 мин, порывы в срок и между сроками (в фигурных скобках) и направление, откуда дует ветер: С - северный, СВ - северо-восточный, В - восточный, ЮВ - юго-восточный, Ю - южный, ЮЗ - юго-западный, З - западный, СЗ - северо-западный.
Видимость - горизонтальная дальность видимости в метрах или километрах. При видимости от 1 до 10 км при отсутствии осадков обычно наблюдается дымка, при ухудшении видимости до 1 км и менее - туман. В сухую погоду видимость может ухудшаться дымом, пылью или мглою.
Явления - указаны атмосферные явления, наблюдавшиеся в срок или в последний час перед сроком; фигурными скобками обозначены явления, наблюдавшиеся между сроками (за 1-3 часа до срока); квадратными скобками обозначены град или гололедные отложения с указанием их диаметра в мм.
Облачность - указаны через наклонную черту общая и нижняя облачность в баллах и высота нижней границы облаков в метрах; квадратными скобками обозначены формы облаков: Ci - перистые, Cs - перисто-слоистые, Cc - перисто-кучевые, Ac - высококучевые, As - высокослоистые, Sc - слоисто-кучевые, Ns - слоисто-дождевые, Cu - кучевые, Cb - кучево-дождевые. Подробнее классификацию облаков см. в Атласе облаков (PDF).
T - Температура воздуха - температура, измеренная на высоте 2 м над землей.
Td - Температура точки росы - температура, при понижении до которой содержащийся в воздухе водяной пар достигнет насыщения.
f - Относительная влажность воздуха - влажноcть воздуха, измеренная на высоте 2 м над землей.
Te - Эффективная температура - температура, которую ощущает одетый по сезону человек в тени. Характеристика душности погоды. При расчете учитывается влияние влажности воздуха и скорости ветра на теплоощущения человека.
Tes - Эффективная температура на солнце - температура, которую ощущает человек, с поправкой на солнечный нагрев. Характеристика знойности погоды. Зависит от высоты солнца над горизонтом, облачности и скорости ветра. Ночью, в пасмурную погоду, а также при ветре 12 м/с и более поправка равна нулю.
P - Атмосферное давление - приведенное к уровню моря атмосферное давление.
Po - Атмосферное давление - измеренное на уровне метеостанции атмосферное давление.
Tmin - Минимальная температура - минимум температуры воздуха на высоте 2 м над землей.
Tmax - Максимальная температура - максимум температуры воздуха на высоте 2 м над землей.
R - Количество осадков - Количество выпавших осадков за период времени, мм. При наведении курсора мыши на число - период времени, за который выпало указанное количество осадков.
R24 - Количество осадков - Количество выпавших осадков за 24 часа, мм.
S - Снежный покров - Высота снежного покрова, см. При наведении курсора мыши на число - состояние снежного покрова и степень покрытия местности в баллах.